world map with ZCO marked

ZCO - Airport

This information may not be accurate or current and is not valid for navigation or flight planning. No warranty of fitness for any purpose is made or implied.

flag of Araucaníaflag of Chile

Donate via PayPal

Additional information is available on the NEW Great Circle Mapper

Location
City:  Temuco, Araucanía, Chile
Near (Alt.):Freire
Name:La Araucanía Airport
ICAO / IATA:SCQP / ZCO

Details
Type:Airport (Aerodrome, Airfield)
Latitude:38°55'33"S (-38.925832)
Longitude:72°39'05"W (-72.651388)
Elevation:321 ft (98 m)
Runways:1
Longest:8005 × 148 ft (2440 × 45 m)

Weather
METAR:SCQP  230900Z 18004KT CAVOK M00/M01 Q1030
TAF:SCQP  230431Z 2306/2406 VRB02KT 2000 BR NSC TNM01/2306Z TX11/2319Z BECMG 2314/2316 15005KT CAVOK

Related Locations
Nearby:
Farthest:INC: 12370 mi / 19908 km
Yinchuan [Hedong], 64, CN

Find:

   beyond  
but within

Other Information
Maps:
Links:
Sources:

  


 


Great Circle Mapper   Great Circle Mapper
Great Circle Mapper FAQ   Great Circle Mapper FAQ
  Karl's Home Page
KLS²   KLS² Home
   GC on Facebook
Airlines of the World   Airlines of the World
Donate via PayPal


Copyright © 2004-2018, Karl L. Swartz. All rights reserved.
All trademarks mentioned herein belong to their respective owners.

Please see credits for attribution and copyright information.

Karl Swartz <karl@kls2.com>
  Powered by FreeBSD
Valid HTML 4.01!
Labeled with ICRA
hCard Microformat
Geo Microformat